Weather in Krasnogorskiy

Russia / Chelyabinsk Oblast     54°36′20″N   61°13′45″E
temp.,
°C
wind,
m/s
gust,
m/s
humid.,
%
clouds,
%
prec.,
mm/h
press.,
hPa
HPBL,
m
20 january, thu
thu2023:00−9sw2392100 0.0 102442
02:00−10sw349168 0.0 102552
05:00−14ssw349586 0.0 102639
08:00−14ssw3595100 0.0 102661
11:00−11ssw3893100 0.0 1026146
14:00−9s4988100 0.0 1025235
17:00−11s41088100 0.0 1025201
20:00−13ssw3892100 0.0 1025143
21 january, fri
fri2123:00−17ssw359364 0.0 102563
02:00−21ssw229680 0.0 102528
05:00−24wsw2210034 0.0 102612
08:00−26wnw1110064 0.0 10279
11:00−20wnw009990 0.0 102726
14:00−15ssw119037 0.0 102641
17:00−20e00985 0.0 10279
20:00−23sw111005 0.0 10289
22 january, sat
sat2223:00−24wsw1110018 0.0 10299
02:00−25wsw1110018 0.0 10309
05:00−25wsw1110099 0.0 10309
08:00−24wsw1199100 0.0 10309
11:00−17s1288100 0.0 103145
14:00−13s2284100 0.0 103094
17:00−16ssw119294 0.0 10319
20:00−21ssw1195100 0.0 10339
23 january, sun
sun2323:00−22w229669 0.0 10349
02:00−23wnw119694 0.0 10349
05:00−23nw229550 0.0 10359
08:00−23nnw119362 0.0 10369
11:00−18n118620 0.0 103634
14:00−13nnw22845 0.0 103771
17:00−17n22925 0.0 10389
20:00−20nw329532 0.0 104016
24 january, mon
mon2423:00−21nw22948 0.0 104012
02:00−19nnw2285100 0.0 104131
05:00−19nnw2289100 0.0 104115
08:00−19nnw2291100 0.0 10429
11:00−15n1188100 0.0 104226
14:00−10n0079100 0.0 104160
17:00−11wsw1189100 0.0 104010
20:00−12ssw1191100 0.0 10409